Weather in Yekaterinovka

Russia / Samara Oblast     52°42′12″N   48°23′25″E
temp.,
°C
wind,
m/s
gust,
m/s
humid.,
%
clouds,
%
prec.,
mm/h
press.,
hPa
HPBL,
m
27 november, sat
sat2701:00−2ssw613765 0.0 1025354
04:00−2ssw6139033 0.0 1025385
07:00−1ssw61291100 0.0 1025558
10:00−1ssw61293100 0.0 1026523
13:000s5118955 0.0 1026509
16:00−2sse49835 0.0 1025205
19:00−4sse513725 0.0 1024251
22:00−5s5137748 0.0 1023278
28 november, sun
sun2801:00−4s51388100 0.0 1022374
04:00−1sse61490100 0.0 1020497
07:00−1s71597100 0.6 1018541
10:00−1s71697100 4.2 1018614
13:000s71593100 1.1 1017605
16:00+1s61287100 2.1 1017497
19:00+1s51190100 0.1 1018357
22:00+1s5995100 0.1 1018294
29 november, mon
mon2901:00+1s4998100 0.1 1018278
04:00+1s4998100 0.1 1019231
07:00+1s48100100 0.1 1019200
10:00+1s39100100 0.2 1020225
13:00+2s411100100 0.1 1019283
16:00+2sse41194100 0.1 1019278
19:00+1sse51481100 0.0 1018310
22:00+1sse61779100 0.0 1015431
30 november, tue
tue3001:00+2s8197595 0.0 1012555
04:00+2sse92078100 0.3 1008572
07:00+2sse102290100 2.7 1003714
10:00+3sse112389100 7.7 1001616
13:00+3s102191100 3.3 999769
16:00+4s71695100 6.6 998535
19:00+5ssw61498100 1.4 998390
22:00+5s4109399 1.4 998199
1 december, wed
wed101:00+5sw579384 0.0 997250
04:00+2sw3396100 0.0 99746
07:00+1s3494100 0.0 99674
10:00+2ssw3494100 0.0 99681
13:00+3wsw1286100 0.0 99474
16:00+1wnw4796100 0.4 993312
19:00+1wnw51083100 0.7 993550
22:000w71281100 0.7 995644